Location: Unspecified
(54.1780°N, 0.0000°E)
Time: 22:27:12
(UTC+00:00)

Explorer 7 - Pass Details

Date: 18 June 2019
Orbit: 485 x 680 km, 50.3° (Epoch: 13 October)

Event Time Altitude Azimuth Distance (km) Brightness Sun altitude
Rises 11:38:10 0° 239° (WSW) 2,868 10.6 58.9°
Reaches altitude 10° 11:40:30 10° 232° (SW) 1,996 10.0 59.0°
Maximum altitude 11:44:51 42° 162° (SSE) 923 9.8 59.1°
Drops below altitude 10° 11:49:24 10° 92° (E) 2,093 10.0 59.1°
Sets 11:51:53 0° 86° (E) 3,023 10.6 59.2°
